Погода Екеже

Погода Екеже : погода сейчас, прогноз погоды и архив. Всё, что Вы хотите узнать о погоде Екеже!

Хотите узнать прогноз погоды Екеже? Тогда Вам сюда: Погода Екеже

Поиск расширенной информации на нашем сайте:

Другие новости

Новости СМИ2

Главная страница сайта

Новости сайта

03.07.2017

Напоминаем, что на нашем специализированном сайте Метеоцентр.Азия вы можете получить высокодетализированные автоматические прогнозы погоды по пунктам России, СНГ и мира в авиационном формате (включающие направление и скорость ветра, видимость, явления погоды, количество и форму облачности, нижнюю и верхнюю границу облачности).


Погода Екеже - сегодня

Время (UTC), дата Ветер
(°,м/с) 
Видим.   Явления Облачность Т
(°С)
Тd
(°С)
f(%) Тe
(°С)
Pmin
(гПа)
dP
(гПа)
Po
(мм)
O2
(г/м3)
Тmin Tmax R s Состояние
почвы
09 18.11.18 070 (В) 20000 м    9/0 верхняя 
[Ci ing]
+9 -9 27 +9  1024.5  -1.1  763  299           
12 18.11.18 050 (СВ) 20000 м    9/0 
[Sc]
+8.6 -10.3 25 +9  1023.7  -0.8  763  299           
15 18.11.18 050 (СВ) 20000 м    9/0 средняя 
[Ac trans]
+4 -12.7 28 +5  1024  0.2  763  304    +9.4       
18 18.11.18 тихо ()   20000 м    9/0 средняя 
[Ac trans]
+3 -13 30 +3  1022.7  -1.3  762  305    +9.4       
21 18.11.18 тихо ()   20000 м    9/0 средняя 
[Ac trans]
+2.4 -11.7 34 +2  1022.4  -0.3  761  305           
00 19.11.18 180 (Ю) 20000 м    10/10 600 м 
[Sc]
+2.6 -2.6 69 +3  1022.3  761  304           
03 19.11.18 тихо ()   20000 м    10/10 600 м 
[Cu med, cong]
+3.6 -1.7 68 +4  1022.3  761  303           
06 19.11.18 200 (Ю) 4000 м  слаб. дождь  10/10 600 м 
[Ns]
+5 +0 70 +6  1023.4  762  302  +2.2         
09 19.11.18 360 (С) 20000 м  {дождь}  9/9 600 м 
[Sc]
+9.8 +0.4 52 +11  1024.1  0.8  763  297           
12 19.11.18 360 (С) 20000 м  {дождь}  ясно 
+10.6 +0.2 49 +11  1023.3  -0.8  762  296           
15 19.11.18 тихо ()   20000 м    6/0 средняя 
[Ac trans]
+5.8 -1.2 61 +6  1024.3  0.9  763  301    +11     
18 19.11.18 тихо ()   20000 м    9/9 600 м 
[Sc]
+5.8 +0.7 70 +6  1025.7  1.4  764  301    +11     
21 19.11.18 тихо ()   20000 м    9/9 600 м 
[Sc]
+4.6 +0.1 73 +5  1025.3  -0.4  764  303           
00 20.11.18 тихо ()   20000 м    10/10 600 м кучево-дожд. 
[Cb cap]
+4.4 -2.3 62 +4  1026.5  1.2  764  303           
03 20.11.18 200 (Ю) 20000 м    9/9 600 м кучево-дожд. 
[Cb cap]
+4.2 -3.2 59 +5  1027.4  0.9  765  304           
06 20.11.18 180 (Ю) 20000 м    9/9 600 м 
[Sc]
+6.2 -3 52 +6  1028  0.6  766  302  +4         
09 20.11.18 180 (Ю) 20000 м    9/9 600 м 
[Sc]
+9.2 -2.7 43 +9  1026.8  -1.1  765  298           
12 20.11.18 090 (В) 20000 м    9/9 600 м 
[Sc]
+9 -1.4 48 +10  1025.5  -1.3  764  298           
15 20.11.18 090 (В) 20000 м    9/9 600 м 
[Sc]
+8 -0.5 55 +8  1025  -0.5  763  299    +9.5       
00 21.11.18 тихо ()   20000 м  туман поземный  ясно 
+3.8 -1.1 70 +4    -1             
03 21.11.18 тихо ()   20000 м    9/9 600 м 
[Sc]
+5.2 +0.3 71 +5  1016.5  -2  757  299           
06 21.11.18 110 (В) 20000 м    9/9 600 м 
[Sc]
+7.4 +1.7 67 +7  1015.3  -1.2  756  296  +3.6         
09 21.11.18 200 (Ю) 20000 м    10/10 600 м 
[Sc]
+9.2 +2.7 64 +9  1001.7  -3.4  754  293           
12 21.11.18 230 (ЮЗ) 20000 м    9/9 600 м 
[Sc]
+9 +3.2 67 +9  1010.2  -1.5  752  293           
15 21.11.18 230 (ЮЗ) 20000 м    10/10 600 м 
[Sc]
+9 +4.3 72 +9  1011.2  753  293    +9.6       
Время (UTC), дата Ветер
(°,м/с) 
Видим.   Явления Облачность Т
(°С)
Тd
(°С)
f(%) Тe
(°С)
Pmin
(гПа)
dP
(гПа)
Po
(мм)
O2
(г/м3)
Тmin Tmax R s Состояние
почвы

Для получения пояснительной информации подведите курсор к названию столбца.

ПОГОДА Екеже - архив

Всё, что Вы хотите узнать о погоде Екеже - удобно и подробно!

Выберите нужную дату (начиная с 1 января 2015* года) и нажмите кнопку "Найти".
Будут отображены архивные сводки погоды по пункту Екеже, начиная с указанной даты.


Отображать данные в формате CSV (для использования в таблицах Excel)


Внимание! Наш архив погоды предназначен исключительно для личного некоммерческого использования в познавательных целях. Если Вам необходимы официальные справки о состоянии погоды (для производственных, юридических, коммерческих и т.п. целей), обращайтесь в органы Росгидромета.

*Примечание: данная дата относится к архиву по метеостанциям СССР (Россия, СНГ, Балтия).
Архив по метеостанциям Зарубежной Европы и Азии (кроме Китая) хранится 10 дней, по другим регионам земного шара (Китай, Африка, Америка, Австралия, Океания) - 1 день.

Екеже - район местоположения метеостанции


Название, широта, долгота, высота метеостанции:
Екеже 41°ш. 57.8°д. 308 м над ур. моря [Туркменистан]

Дополнительная информация

В oтличие oт бoльшинства пoгoдных сайтoв мы публикуем пoдрoбную метеoинфoрмацию в детальнoм прoфессиoнальнoм фoрмате.

Характеристики температуры и влажнoсти вoздуха измеряются на высoте 2 м в тени вдали oт зданий и деревьев.
Скoрoсть ветра измеряется на высoте 10 м (на урoвне рoста челoвека скoрoсть ветра ниже в 1.5-2 раза). Если метеoстанция нахoдится в гoрoде или в лесу, тo скoрoсть ветра занижена на 2-4 м/с пo сравнению с oткрытым местoм. Скoрoсть ветра над акватoриями крупных рек и oзёр, а также на вершинах хoлмoв на 2-5 м/с выше, чем в oбычных услoвиях.
Атмoсфернoе давление в разных тoчках местнoсти мoжет значительнo oтличаться oт давления на метеoстанции, в зависимoсти oт услoвий рельефа (при пoдъёме на 10 м давление пoнижается примернo на 1 мм рт.ст.).